Location: Gebenbach
(49.5378°N, 11.8735°E)
Time: 10:41:54
(UTC+00:00)

USA 215 - Pass Details

Date: 29 October 2020
Orbit: 1102 x 1106 km, 123.0° (Epoch: 23 November)

Event Time Altitude Azimuth Distance (km) Brightness Sun altitude
Exits shadow 19:57:29 46° 294° (WNW) 1,446 4.1 -39.0°
Drops below altitude 10° 20:01:53 10° 302° (WNW) 2,966 6.2 -39.7°
Sets 20:04:23 0° 304° (NW) 3,926 7.0 -40.0°
